[[{"header":{"parameterUnit":"m.s-1","parameterCategory":1,"la1":30.2991,"la2":30.254,"lo1":-89.0895,"lo2":-89.0444,"dy":0.0017,"dx":0.0017,"nx":28,"ny":28,"refTime":"2023-05-01T21:00:00:Z","depth":0,"parameterNumber":2,"parameterNumberName":"U-component_of_WINDS"},"data":[0,0,0,0,0,0,0,0,0,0,0,0,0,0,0,0,0,0,0,0,0,0,0,0,0,0,0,0,0,0,0,0,0,0,0,0,0,0,0,0,0,0,0,0,0,0,0,0,0,0,0,0,0,0,0,0,0,0,0.1349,0.135,0,0.1419,0.142,0.142,0.1525,0.1527,0.1529,0.1531,0.16,0.16,0.16,0,0,0,0,0,0,0,0,0,0,0,0,0,0.1306,0.1306,0.1349,0.135,0.1351,0.1419,0.142,0.142,0.1525,0.1527,0.153,0.1532,0.16,0.16,0.16,0,0,0,0,0,0,0,0,0,0,0,0,0,0.1345,0.1306,0.1349,0.1411,0.1417,0.1418,0.142,0.1421,0.1525,0.1527,0.153,0.1533,0.16,0.16,0.16,0.1546,0,0,0.1601,0.1601,0,0,0,0,0,0,0,0,0.1342,0.1346,0.1401,0.1407,0.1414,0.1466,0.143,0.1462,0.1524,0.1484,0.1531,0.1534,0.1553,0.1557,0.1564,0.1549,0.1552,0.1601,0.1601,0.1601,0.1601,0,0,0,0,0,0,0,0.1339,0.1344,0.1377,0.1402,0.141,0.1435,0.1444,0.1436,0.1502,0.1487,0.1495,0.1502,0.1557,0.1564,0.1567,0.1553,0.1601,0.1601,0.1601,0.1601,0.1496,0.1493,0,0,0,0,0,0,0.1328,0.1341,0.1374,0.1379,0.1384,0.1434,0.1443,0.1447,0.1502,0.1514,0.15,0.1507,0.1562,0.1566,0.157,0.1509,0.1601,0.1601,0.1601,0.1499,0.1496,0.1492,0,0,0,0,0,0,0.1326,0.133,0.1372,0.1362,0.1369,0.1432,0.1434,0.1446,0.1453,0.1512,0.1524,0.1494,0.1565,0.1569,0.1551,0.1513,0.1601,0.1602,0.1502,0.1498,0.1494,0.1387,0,0,0,0,0,0,0.1325,0.1329,0.1308,0.1361,0.1369,0.1352,0.1432,0.1446,0.1453,0.1463,0.151,0.152,0.1567,0.155,0.1551,0.1515,0.1602,0.1506,0.15,0.1495,0.1394,0.1379,0.1367,0,0,0,0,0,0.1323,0.1275,0.1307,0.131,0.1346,0.1349,0.1354,0.141,0.145,0.143,0.1468,0.1519,0.1517,0.1547,0.1549,0.1512,0.1509,0.1502,0.1496,0.14,0.1382,0.1367,0,0,0,0,0,0,0.1216,0.1283,0.1319,0.1287,0.1312,0.1367,0.1344,0.1389,0.1402,0.1411,0.1479,0.1488,0.1461,0.1485,0.1518,0.1462,0.1521,0.1514,0.1447,0.1431,0.1417,0.1412,0.1602,0,0,0,0,0,0.1189,0.1186,0.1245,0.1211,0.1222,0.128,0.1284,0.1325,0.1353,0.1364,0.14,0.1425,0.143,0.1432,0.144,0.1399,0.141,0.1374,0.136,0.1349,0.1342,0.1322,0.1306,0.1471,0.1471,0.1471,0,0,0.1132,0.1169,0.1163,0.1191,0.1215,0.121,0.1288,0.1281,0.1278,0.1362,0.1347,0.1375,0.1407,0.1377,0.1365,0.1396,0.13,0.1341,0.1331,0.1331,0.1314,0.1298,0.1284,0.1467,0.1467,0.1468,0,0,0.1027,0.1054,0.1029,0.1052,0.1088,0.1127,0.1121,0.117,0.1191,0.1178,0.1241,0.1239,0.1246,0.1267,0.1278,0.1182,0.1229,0.1183,0.1111,0.109,0.1077,0.1066,0.1031,0.1018,0.1176,0.1176,0.1175,0,0.0952,0.0948,0.101,0.0999,0.1009,0.1086,0.1061,0.108,0.1116,0.1121,0.1155,0.1167,0.1194,0.1169,0.1146,0.1153,0.1147,0.1177,0.1074,0.1064,0.1054,0.1021,0.1008,0.117,0.117,0.1171,0.1172,0,0.0854,0.0851,0.0826,0.086,0.0868,0.0849,0.0907,0.0908,0.0948,0.0984,0.0969,0.1004,0.1021,0.1019,0.1058,0.1,0.1018,0.1062,0.1122,0.1031,0.1002,0.099,0.1161,0.1163,0.1165,0.1167,0,0,0.0682,0.0751,0.074,0.0757,0.0803,0.0801,0.0786,0.0803,0.0802,0.0825,0.0813,0.0819,0.086,0.0873,0.0915,0.0897,0.0818,0.0945,0.0946,0.0919,0.0756,0.0721,0.0706,0.0851,0.0848,0.0847,0.0753,0,0.0585,0.0564,0.0619,0.0584,0.0581,0.0655,0.0643,0.0669,0.0702,0.0705,0.0742,0.0744,0.0799,0.0807,0.0793,0.0831,0.0786,0.0839,0.084,0.0839,0.0828,0.0691,0.0654,0.0563,0.0742,0.074,0.0739,0,0.0468,0.0486,0.045,0.0498,0.05,0.0487,0.0507,0.0509,0.0541,0.0566,0.0581,0.063,0.0619,0.0677,0.0663,0.0697,0.0701,0.072,0.0718,0.0719,0.0782,0.0687,0.0536,0.0522,0.0721,0.0723,0.0724,0,0.0345,0.036,0.0341,0.0352,0.0408,0.0398,0.042,0.0455,0.0462,0.0479,0.0485,0.05,0.0509,0.052,0.0572,0.061,0.0551,0.0614,0.0571,0.0569,0.0554,0.0554,0.04,0.0558,0.0558,0.0559,0.0559,0,0.023,0.0205,0.0286,0.0274,0.0248,0.0313,0.0285,0.0316,0.0346,0.0341,0.0406,0.04,0.047,0.0472,0.0513,0.0494,0.0497,0.0517,0.0528,0.0511,0.0508,0.0513,0.052,0.0555,0.0556,0.0557,0.0557,0,0.0088,0.0141,0.0124,0.0179,0.0192,0.0171,0.0218,0.0209,0.0247,0.0239,0.0241,0.0301,0.0306,0.036,0.0377,0.0405,0.0369,0.0393,0.0358,0.0365,0.0319,0.0322,0.0163,0.0145,0.0315,0.0313,0.0312,0,0.001,-0.0007,0.0046,0.0048,0.0067,0.0069,0.0077,0.014,0.0145,0.018,0.0166,0.0177,0.0189,0.0194,0.0238,0.0251,0.0275,0.0218,0.0277,0.026,0.0273,0.0273,0.0271,0.0205,0.0203,0.0201,0.02,0,-0.0133,-0.0106,-0.0097,-0.0079,-0.0072,-0.0055,-0.0034,-0.0037,0.0033,0.0035,0.0042,0.0051,0.0069,0.0078,0.01,0.0123,0.0172,0.0181,0.0172,0.0153,0.0133,0.0142,0.0323,0.0184,0.0186,0.0187,0.0188,0.0188,-0.0246,-0.0258,-0.0222,-0.0215,-0.0192,-0.0174,-0.018,-0.0142,-0.0135,-0.0116,-0.0078,-0.0078,-0.0045,-0.0011,0.0008,0.0009,0.0039,0.0025,0.0022,0.0017,0.0007,0.0134,0.0014,0.0014,0.0015,0.0015,0.0016,0,-0.0387,-0.036,-0.0354,-0.0326,-0.032,-0.0272,-0.0247,-0.0245,-0.0245,-0.0218,-0.0208,-0.02,-0.0191,-0.0145,-0.013,-0.0138,-0.0115,-0.0137,-0.0136,-0.0132,-0.0019,-0.0013,-0.0155,-0.0155,-0.0155,-0.0155,-0.0155,-0.0155,-0.046,-0.0477,-0.0446,-0.0452,-0.0424,-0.0422,-0.0412,-0.0395,-0.0373,-0.0368,-0.0359,-0.0329,-0.0295,-0.0277,-0.0266,-0.0252,-0.025,-0.028,-0.026,-0.0156,-0.0139,-0.0124,-0.0118,-0.028,-0.028,-0.0372,-0.0373,-0.0373]},{"header":{"parameterUnit":"m.s-1","parameterCategory":1,"la1":30.2991,"la2":30.254,"lo1":-89.0895,"lo2":-89.0444,"dy":0.0017,"dx":0.0017,"nx":28,"ny":28,"refTime":"2023-05-01T21:00:00:Z","depth":0,"parameterNumber":3,"parameterNumberName":"V-component_of_WINDS"},"data":[0,0,0,0,0,0,0,0,0,0,0,0,0,0,0,0,0,0,0,0,0,0,0,0,0,0,0,0,0,0,0,0,0,0,0,0,0,0,0,0,0,0,0,0,0,0,0,0,0,0,0,0,0,0,0,0,0,0,-0.9993,-0.9993,0,-0.9968,-0.9967,-0.9967,-0.9982,-0.9983,-0.9984,-0.9984,-0.9955,-0.9954,-0.9952,0,0,0,0,0,0,0,0,0,0,0,0,0,-1.0055,-1.0054,-0.9993,-0.9993,-0.9993,-0.9968,-0.9967,-0.9967,-0.9982,-0.9983,-0.9984,-0.9985,-0.9955,-0.9954,-0.9952,0,0,0,0,0,0,0,0,0,0,0,0,0,-1.0028,-1.0053,-0.9994,-0.9997,-0.9998,-0.9968,-0.9967,-0.9967,-0.9982,-0.9983,-0.9984,-0.9985,-0.9956,-0.9954,-0.9952,-0.9916,0,0,-0.9945,-0.9944,0,0,0,0,0,0,0,0,-1.003,-1.0026,-0.9997,-0.9997,-0.9997,-0.9979,-0.9978,-0.995,-0.9982,-0.9988,-0.9984,-0.9986,-0.9962,-0.9959,-0.9952,-0.9914,-0.9913,-0.9945,-0.9943,-0.9942,-0.9942,0,0,0,0,0,0,0,-1.0032,-1.0027,-0.9983,-0.9997,-0.9997,-1.0,-0.9998,-0.9973,-0.9969,-0.9987,-0.9988,-0.9985,-0.9962,-0.9954,-0.9951,-0.9913,-0.9945,-0.9943,-0.9942,-0.9941,-0.9847,-0.9846,0,0,0,0,0,0,-1.0033,-1.0029,-0.9984,-0.9982,-1.0017,-0.9998,-0.9995,-0.9984,-0.9969,-0.9968,-0.9984,-0.9986,-0.9957,-0.9954,-0.995,-0.991,-0.9942,-0.994,-0.9939,-0.9848,-0.9847,-0.9845,0,0,0,0,0,0,-1.0035,-1.0029,-0.9985,-1.0006,-1.0,-0.9996,-0.9983,-0.9983,-0.9975,-0.9967,-0.9966,-0.9977,-0.9958,-0.9954,-0.9925,-0.9909,-0.9939,-0.9937,-0.9849,-0.9848,-0.9846,-0.9826,0,0,0,0,0,0,-1.0036,-1.003,-1.0016,-1.0005,-0.9999,-0.996,-0.9982,-0.9981,-0.9971,-0.9973,-0.996,-0.9959,-0.9959,-0.9928,-0.9923,-0.9906,-0.9936,-0.9851,-0.9849,-0.9847,-0.9828,-0.9824,-0.982,0,0,0,0,0,-1.0039,-1.001,-1.0015,-1.001,-0.9982,-0.9959,-0.9956,-0.9957,-0.997,-0.9956,-0.9952,-0.9959,-0.9911,-0.9925,-0.9919,-0.9902,-0.9852,-0.9849,-0.9847,-0.983,-0.9825,-0.982,0,0,0,0,0,0,-1.0018,-1.0009,-1.0014,-0.9982,-0.9972,-0.9962,-0.9945,-0.9951,-0.9936,-0.9939,-0.994,-0.9937,-0.9908,-0.9901,-0.9918,-0.9867,-0.9883,-0.988,-0.9873,-0.9868,-0.9864,-0.9867,-0.9934,0,0,0,0,0,-1.0009,-0.9992,-0.9985,-0.9957,-0.9952,-0.9949,-0.9939,-0.9942,-0.993,-0.9926,-0.9919,-0.9907,-0.989,-0.9878,-0.9861,-0.9827,-0.9825,-0.9812,-0.9808,-0.9805,-0.9802,-0.9786,-0.978,-0.9837,-0.9837,-0.9837,0,0,-0.9992,-0.9985,-0.9974,-0.9953,-0.9945,-0.9927,-0.9945,-0.9925,-0.9912,-0.9922,-0.9896,-0.989,-0.9878,-0.9847,-0.9833,-0.9841,-0.9786,-0.9801,-0.9799,-0.9798,-0.9782,-0.9777,-0.9772,-0.9835,-0.9835,-0.9836,0,0,-0.9952,-0.9944,-0.9921,-0.9914,-0.9902,-0.9901,-0.9896,-0.9886,-0.9883,-0.9857,-0.9865,-0.9849,-0.9818,-0.981,-0.9801,-0.9759,-0.9766,-0.9754,-0.9733,-0.9717,-0.9713,-0.9709,-0.9696,-0.9692,-0.975,-0.975,-0.975,0,-0.9931,-0.9906,-0.9908,-0.9889,-0.988,-0.989,-0.9867,-0.9859,-0.9842,-0.9836,-0.9845,-0.9809,-0.98,-0.9769,-0.9759,-0.9751,-0.9746,-0.9756,-0.9714,-0.971,-0.9706,-0.9694,-0.9689,-0.9749,-0.9749,-0.9749,-0.975,0,-0.9882,-0.9864,-0.9847,-0.9833,-0.9822,-0.98,-0.98,-0.9789,-0.9792,-0.979,-0.9764,-0.9755,-0.9738,-0.973,-0.9732,-0.9699,-0.9705,-0.9714,-0.973,-0.9699,-0.9688,-0.9683,-0.9747,-0.9748,-0.9748,-0.9748,0,0,-0.9828,-0.9817,-0.9811,-0.9806,-0.9795,-0.9781,-0.976,-0.9745,-0.9736,-0.9724,-0.9707,-0.9682,-0.9691,-0.9681,-0.9683,-0.9668,-0.9639,-0.9679,-0.9679,-0.9674,-0.9605,-0.96,-0.9594,-0.9643,-0.9642,-0.9642,-0.9607,0,-0.9789,-0.9754,-0.9757,-0.9725,-0.9709,-0.9719,-0.9702,-0.9693,-0.969,-0.9677,-0.9673,-0.9657,-0.9668,-0.9663,-0.9649,-0.9646,-0.9626,-0.9648,-0.9629,-0.9628,-0.9634,-0.9588,-0.9582,-0.955,-0.9602,-0.9601,-0.9601,0,-0.9738,-0.9727,-0.9694,-0.9688,-0.9681,-0.9665,-0.9653,-0.9639,-0.963,-0.9629,-0.9619,-0.9624,-0.9603,-0.962,-0.9592,-0.9608,-0.96,-0.9597,-0.9596,-0.9595,-0.9614,-0.9588,-0.9539,-0.9535,-0.9593,-0.9594,-0.9595,0,-0.9705,-0.9681,-0.9659,-0.9654,-0.9645,-0.9634,-0.963,-0.9622,-0.9613,-0.9601,-0.9596,-0.9581,-0.9574,-0.9563,-0.9563,-0.9575,-0.9536,-0.9552,-0.9536,-0.9536,-0.9529,-0.9529,-0.948,-0.952,-0.9521,-0.9521,-0.9521,0,-0.9662,-0.9642,-0.9644,-0.9631,-0.9609,-0.9612,-0.959,-0.9587,-0.958,-0.9566,-0.9572,-0.9559,-0.956,-0.9546,-0.9546,-0.9525,-0.952,-0.952,-0.9521,-0.952,-0.9521,-0.9516,-0.9519,-0.9519,-0.952,-0.952,-0.952,0,-0.9621,-0.9622,-0.9599,-0.9594,-0.9592,-0.9576,-0.9571,-0.9558,-0.9557,-0.9539,-0.9535,-0.9533,-0.9518,-0.9517,-0.9498,-0.9499,-0.9473,-0.9475,-0.9477,-0.9478,-0.9463,-0.9465,-0.941,-0.9404,-0.9447,-0.9447,-0.9446,0,-0.9595,-0.958,-0.9574,-0.9566,-0.9561,-0.9548,-0.954,-0.9542,-0.9533,-0.9523,-0.9512,-0.9497,-0.9486,-0.9461,-0.9458,-0.9444,-0.9447,-0.9429,-0.9445,-0.9446,-0.9449,-0.9451,-0.945,-0.9426,-0.9426,-0.9425,-0.9425,0,-0.9549,-0.955,-0.9539,-0.9528,-0.9519,-0.951,-0.9502,-0.9495,-0.9497,-0.9486,-0.9472,-0.9463,-0.9446,-0.9432,-0.9419,-0.9414,-0.942,-0.942,-0.9416,-0.9416,-0.9419,-0.9419,-0.9471,-0.9421,-0.9421,-0.9422,-0.9422,-0.9422,-0.9516,-0.9504,-0.9498,-0.9486,-0.9481,-0.9473,-0.9462,-0.946,-0.9449,-0.9436,-0.9438,-0.9422,-0.9414,-0.9398,-0.9392,-0.938,-0.9386,-0.938,-0.9378,-0.9377,-0.9377,-0.942,-0.9377,-0.9377,-0.9377,-0.9377,-0.9378,0,-0.9472,-0.9469,-0.9458,-0.9447,-0.9438,-0.9445,-0.9437,-0.9429,-0.9415,-0.9408,-0.9398,-0.9382,-0.9369,-0.9365,-0.9352,-0.9343,-0.9346,-0.934,-0.9341,-0.9341,-0.9371,-0.9377,-0.9338,-0.9338,-0.9338,-0.9338,-0.9338,-0.9338,-0.9448,-0.9429,-0.943,-0.9409,-0.9406,-0.9392,-0.9387,-0.9381,-0.9376,-0.9358,-0.9348,-0.9346,-0.934,-0.9328,-0.9317,-0.9316,-0.9312,-0.9305,-0.9305,-0.9334,-0.9338,-0.9342,-0.9348,-0.9304,-0.9304,-0.9277,-0.9276,-0.9276]}]]